STARLINK-36322, 68522

Orbit data source: Space-Track

STARLINK-36322, 68522 is a payload satellite owned by SpaceX/Seattle (US) in LEO that was launched on Mon, 30 Mar 2026 UTC via an FALCON 9 launch vehicle from the Air Force Eastern Test Range (AFETR). Payload-class satellites include a variety of spacecraft equipped with specific instruments for various scientific and technological missions. These include communications satellites like Starlink; space stations such as the ISS; scientific satellites like the Hubble; Earth observation satellites from companies like Planet Labs, Umbra, and HawkEye 360; GPS; miniature CubeSats for education and research; and military/defense satellites.

Loading next visibility...
Identifier
68522, 2026-068Q
Orbit
LEO
Country
Flag of USUS
Related business
Manufacturer
SpaceX/Seattle
Mission
Operational spacecraft
Bus & Motor
STARLINK V2MO, Unknown motor
Mass
575 kg wet, ~530 kg dry
Launch date (UTC)
2026-03-30 (3 months ago)
Launch vehicle
FALCON 9
Launch site
Air Force Eastern Test Range (AFETR)
Object type
Payload
Rocket body
Debris
Shape & HBR
Unknown shape, 2.0 m
Radar Cross Section
Large (>1 m²)

Expand to show TLE details & history
Last TLE update: 1 day ago

TLE from 1 day ago
0 STARLINK-36322
1 68522U 26068Q   26170.84919139  .00023816  00000-0  71380-3 0  9997
2 68522  53.1584  12.7797 0001208  63.5032 296.6094 15.34398705 12615
Epoch: 2026-06-19T20:22Z
TLE epoch observation values (Epoch: 2026-06-19T20:22:50.136Z)
Latitude
-0.00003°
Longitude
158.99851°
Altitude
463.238 km
Speed
7.636 km/s
True Right ascension
00h 51m 07s
True Declination
0° 00' 00"
Sunlit
Object was in daylight at epoch
Visualization orbit readout
Latitude
Unknown
Longitude
Unknown
Altitude
Unknown
Speed
Unknown
Apparent Right ascension
Unknown
Apparent Declination
Unknown
Sunlit
N/A
Visualization observer readout
Local Sidereal Time
07:19:02
Azimuth
Unknown
Elevation
Unknown
Doppler factor
Unknown
Orbital elements
Apogee altitude
463.791 km
Perigee altitude
462.138 km
Semi-major axis
6,841.101 km
Eccentricity
0.00012
Inclination
53.1584°
RAAN
12.7797°
Arg. of periapsis
63.5032°
True anomaly
296.59702°
Mean anomaly
296.6094°
Eccentric anomaly
296.60321°
Mean motion
3.83578 °/min
Orbital period
93.85 mins
BSTAR
0.0007138
Loading maneuver chart data...
Computing Atmospheric mass density...
Loading historical data...
Loading historical data...
Loading historical data...
Loading historical data...
Loading historical data...
Loading historical data...
Loading historical data...

Documentation

Showing up to 5 results
|